Location: Dos Palmas
(32.4468°N, 116.8732°W)
Time: 12:27:12
(UTC+00:00)

Tiangong - Visible Passes

Search period start: 20 July 2024 00:00
Search period end: 30 July 2024 00:00
Orbit: 374 x 377 km, 41.5° (Epoch: 20 July)

Date Brightness Start Highest point End Pass type
(mag) Time Alt. Az. Time Alt. Az. Time Alt. Az.
20 Jul 0.3 11:13:52 10° NW 11:16:22 22° NNE 11:18:52 10° ENE visible
21 Jul 0.9 10:14:12 16° NNE 10:14:12 16° NNE 10:15:41 10° NE visible
21 Jul -1.3 11:47:35 10° NW 11:50:36 49° NNE 11:53:37 10° ESE visible
22 Jul -0.3 10:47:23 27° N 10:47:51 29° NNE 10:50:37 10° E visible
22 Jul -1.8 12:21:35 10° WNW 12:24:31 41° SW 12:27:28 10° SE visible
23 Jul -2.3 11:21:04 45° WNW 11:21:53 87° NNE 11:24:58 10° ESE visible
24 Jul -0.2 03:49:16 10° S 03:50:16 14° SSE 03:50:16 14° SSE visible
24 Jul -1.0 11:55:17 22° SW 11:55:35 23° SW 11:58:05 10° SSE visible
25 Jul -2.2 04:21:46 10° SW 04:24:34 59° S 04:24:34 59° S visible
26 Jul -1.2 03:19:24 10° SSW 03:22:07 28° SE 03:24:49 10° E visible
26 Jul -0.5 04:55:44 10° W 04:58:13 35° NW 04:58:13 35° NW visible
27 Jul -2.0 03:52:38 10° WSW 03:55:43 71° NNW 03:58:49 10° ENE visible
27 Jul 1.1 05:30:21 10° WNW 05:31:16 15° NW 05:31:16 15° NW visible
28 Jul 0.0 04:26:53 10° WNW 04:29:33 26° NNW 04:31:49 13° NE visible
29 Jul -0.9 03:23:29 10° W 03:26:28 42° NNW 03:29:26 10° NE visible
29 Jul 0.5 05:01:29 10° NW 05:03:34 16° N 05:04:04 16° N visible
